Terug naar catalogus

BD-2-G7

ActiefNavigatieGEO
NORAD 41586·PAYLOAD·🇨🇳 China

Gelanceerd Jun 12, 2016 vanaf Xichang Satellite Launch Center

Loading…

TLE

VersSource: Space-Track

Epoch: Sep 14, 2026, 14:19 UTC

1 41586U 16037A   26257.59702777 -.00000361  00000-0  00000-0 0  9998
2 41586   1.9371  69.6761 0005317 352.5731 256.7951  1.00274952  7781

Volg BD-2-G7 in realtime met AllMySat

Download on the App Store